Time,TemperatureF,DewpointF,PressureIn,WindDirection,WindDirectionDegrees,WindSpeedMPH,WindSpeedGustMPH,Humidity,HourlyPrecipIn,Conditions,Clouds,dailyrainin,SoftwareType,DateUTC
2013-02-12 00:00:00,70.0,63.5,30.03,SSE,161,0.0,0.0,80,0.00,,---,0.00,VWS V14.01,2013-02-12 05:00:00,
2013-02-12 00:05:00,70.0,63.5,30.03,South,173,0.0,0.0,80,0.00,,---,0.00,VWS V14.01,2013-02-12 05:05:00,
2013-02-12 00:10:00,70.0,63.9,30.03,SSE,163,0.0,0.0,81,0.00,,---,0.00,VWS V14.01,2013-02-12 05:10:00,
2013-02-12 00:15:00,70.0,63.9,30.03,SE,144,0.0,0.0,81,0.00,,---,0.00,VWS V14.01,2013-02-12 05:15:00,
2013-02-12 00:20:00,70.0,64.2,30.03,SE,141,2.7,2.7,82,0.00,,---,0.00,VWS V14.01,2013-02-12 05:20:00,
2013-02-12 00:25:00,70.0,64.2,30.03,SE,124,0.0,0.0,82,0.00,,---,0.00,VWS V14.01,2013-02-12 05:25:00,
2013-02-12 00:30:00,70.0,64.2,30.03,SE,137,0.0,2.7,82,0.00,,---,0.00,VWS V14.01,2013-02-12 05:30:00,
2013-02-12 00:35:00,70.2,64.4,30.03,SE,137,0.0,0.0,82,0.00,,---,0.00,VWS V14.01,2013-02-12 05:35:00,
2013-02-12 00:40:00,70.2,64.8,30.03,SE,139,3.1,5.8,83,0.00,,---,0.00,VWS V14.01,2013-02-12 05:40:00,
2013-02-12 00:45:00,70.2,64.8,30.03,SE,141,0.0,0.0,83,0.00,,---,0.00,VWS V14.01,2013-02-12 05:45:00,
2013-02-12 00:50:00,70.2,64.8,30.03,SE,135,0.0,0.0,83,0.00,,---,0.00,VWS V14.01,2013-02-12 05:50:00,
2013-02-12 00:55:00,70.3,64.9,30.03,North,357,3.6,3.6,83,0.00,,---,0.00,VWS V14.01,2013-02-12 05:55:00,
2013-02-12 01:00:00,70.3,64.9,30.03,SE,129,2.7,3.6,83,0.00,,---,0.00,VWS V14.01,2013-02-12 06:00:00,
2013-02-12 01:05:00,70.3,64.9,30.03,SE,126,2.2,2.2,83,0.00,,---,0.00,VWS V14.01,2013-02-12 06:05:00,
2013-02-12 01:10:00,70.3,64.9,30.03,SSE,162,2.7,2.7,83,0.00,,---,0.00,VWS V14.01,2013-02-12 06:10:00,
2013-02-12 01:15:00,70.3,64.9,30.03,SE,137,2.2,2.2,83,0.00,,---,0.00,VWS V14.01,2013-02-12 06:15:00,
2013-02-12 01:20:00,70.3,64.9,30.03,SE,133,2.7,2.7,83,0.00,,---,0.00,VWS V14.01,2013-02-12 06:20:00,
2013-02-12 01:25:00,70.5,65.1,30.03,SE,145,2.7,2.7,83,0.00,,---,0.00,VWS V14.01,2013-02-12 06:25:00,
2013-02-12 01:30:00,70.5,65.1,30.03,SE,131,2.2,2.2,83,0.00,,---,0.00,VWS V14.01,2013-02-12 06:30:00,
2013-02-12 01:35:00,70.5,65.1,30.03,SSE,158,0.0,0.0,83,0.00,,---,0.00,VWS V14.01,2013-02-12 06:35:00,
2013-02-12 01:40:00,70.5,65.1,30.03,SE,146,2.7,2.7,83,0.00,,---,0.00,VWS V14.01,2013-02-12 06:40:00,
2013-02-12 01:45:00,70.5,65.5,30.03,SE,136,2.7,2.7,84,0.00,,---,0.00,VWS V14.01,2013-02-12 06:45:00,
2013-02-12 01:50:00,70.5,65.5,30.03,SSE,149,2.2,2.2,84,0.00,,---,0.00,VWS V14.01,2013-02-12 06:50:00,
2013-02-12 01:55:00,70.5,65.1,30.03,SE,139,2.2,3.1,83,0.00,,---,0.00,VWS V14.01,2013-02-12 06:55:00,
2013-02-12 02:00:00,70.5,65.1,30.03,SE,141,2.2,2.2,83,0.00,,---,0.00,VWS V14.01,2013-02-12 07:00:00,
2013-02-12 02:05:00,70.5,65.1,30.03,SE,138,0.0,2.2,83,0.00,,---,0.00,VWS V14.01,2013-02-12 07:05:00,
2013-02-12 02:10:00,70.5,65.1,30.03,SE,144,0.0,2.7,83,0.00,,---,0.00,VWS V14.01,2013-02-12 07:10:00,
2013-02-12 02:15:00,70.5,65.1,30.03,ESE,116,0.0,0.0,83,0.00,,---,0.00,VWS V14.01,2013-02-12 07:15:00,
2013-02-12 02:20:00,70.5,65.1,30.03,SE,131,0.0,0.0,83,0.00,,---,0.00,VWS V14.01,2013-02-12 07:20:00,
2013-02-12 02:25:00,70.5,65.1,30.03,SE,139,2.7,3.1,83,0.00,,---,0.00,VWS V14.01,2013-02-12 07:25:00,
2013-02-12 02:30:00,70.5,65.1,30.03,SE,141,2.7,2.7,83,0.00,,---,0.00,VWS V14.01,2013-02-12 07:30:00,
2013-02-12 02:35:00,70.5,65.1,30.03,SE,140,2.2,2.2,83,0.00,,---,0.00,VWS V14.01,2013-02-12 07:35:00,
2013-02-12 02:40:00,70.5,65.1,30.00,SE,140,0.0,0.0,83,0.00,,---,0.00,VWS V14.01,2013-02-12 07:40:00,
2013-02-12 02:45:00,70.3,64.9,30.00,SE,140,0.0,0.0,83,0.00,,---,0.00,VWS V14.01,2013-02-12 07:45:00,
2013-02-12 02:50:00,70.3,64.9,30.00,SE,140,0.0,0.0,83,0.00,,---,0.00,VWS V14.01,2013-02-12 07:50:00,
2013-02-12 02:55:00,70.3,64.9,30.00,SE,140,0.0,0.0,83,0.00,,---,0.00,VWS V14.01,2013-02-12 07:55:00,
2013-02-12 03:00:00,70.2,64.8,30.00,SE,140,0.0,0.0,83,0.00,,---,0.00,VWS V14.01,2013-02-12 08:00:00,
2013-02-12 03:05:00,70.2,64.8,30.00,SE,140,0.0,0.0,83,0.00,,---,0.00,VWS V14.01,2013-02-12 08:05:00,
2013-02-12 03:10:00,70.2,64.8,30.00,SE,140,0.0,0.0,83,0.00,,---,0.00,VWS V14.01,2013-02-12 08:10:00,
2013-02-12 03:15:00,70.0,64.6,30.00,SE,140,0.0,0.0,83,0.00,,---,0.00,VWS V14.01,2013-02-12 08:15:00,
2013-02-12 03:20:00,70.0,64.6,30.00,SE,140,0.0,0.0,83,0.00,,---,0.00,VWS V14.01,2013-02-12 08:20:00,
2013-02-12 03:25:00,69.8,64.4,30.00,SE,140,0.0,0.0,83,0.00,,---,0.00,VWS V14.01,2013-02-12 08:25:00,
2013-02-12 03:30:00,69.6,64.2,30.00,SE,140,0.0,0.0,83,0.00,,---,0.00,VWS V14.01,2013-02-12 08:30:00,
2013-02-12 03:35:00,69.6,64.6,30.00,SE,140,0.0,0.0,84,0.00,,---,0.00,VWS V14.01,2013-02-12 08:35:00,
2013-02-12 03:40:00,69.6,64.6,30.00,SE,140,0.0,0.0,84,0.00,,---,0.00,VWS V14.01,2013-02-12 08:40:00,
2013-02-12 03:45:00,69.4,64.4,30.00,SE,140,0.0,0.0,84,0.00,,---,0.00,VWS V14.01,2013-02-12 08:45:00,
2013-02-12 03:50:00,69.4,64.7,30.00,SE,140,0.0,0.0,85,0.00,,---,0.00,VWS V14.01,2013-02-12 08:50:00,
2013-02-12 03:55:00,69.4,64.7,30.00,SE,140,0.0,0.0,85,0.00,,---,0.00,VWS V14.01,2013-02-12 08:55:00,
2013-02-12 04:00:00,69.3,64.6,30.00,SE,140,0.0,0.0,85,0.00,,---,0.00,VWS V14.01,2013-02-12 09:00:00,
2013-02-12 04:05:00,69.3,64.9,30.00,SE,140,0.0,0.0,86,0.00,,---,0.00,VWS V14.01,2013-02-12 09:05:00,
2013-02-12 04:10:00,69.3,64.9,30.00,SE,140,0.0,0.0,86,0.00,,---,0.00,VWS V14.01,2013-02-12 09:10:00,
2013-02-12 04:15:00,69.3,64.9,30.00,SE,140,0.0,0.0,86,0.00,,---,0.00,VWS V14.01,2013-02-12 09:15:00,
2013-02-12 04:20:00,69.3,65.2,30.00,SE,140,0.0,0.0,87,0.00,,---,0.00,VWS V14.01,2013-02-12 09:20:00,
2013-02-12 04:25:00,69.3,65.6,30.00,SE,140,0.0,0.0,88,0.00,,---,0.00,VWS V14.01,2013-02-12 09:25:00,
2013-02-12 04:30:00,69.3,65.6,30.00,SE,140,0.0,0.0,88,0.00,,---,0.00,VWS V14.01,2013-02-12 09:30:00,
2013-02-12 04:35:00,69.3,65.6,30.00,SE,140,0.0,0.0,88,0.00,,---,0.00,VWS V14.01,2013-02-12 09:35:00,
2013-02-12 04:40:00,69.3,65.9,30.00,SE,140,0.0,0.0,89,0.00,,---,0.00,VWS V14.01,2013-02-12 09:40:00,
2013-02-12 04:45:00,69.3,65.9,30.00,SE,140,0.0,0.0,89,0.00,,---,0.00,VWS V14.01,2013-02-12 09:45:00,
2013-02-12 04:50:00,69.3,66.2,30.00,SE,140,0.0,0.0,90,0.00,,---,0.00,VWS V14.01,2013-02-12 09:50:00,
2013-02-12 04:55:00,69.4,66.7,30.00,SE,140,0.0,0.0,91,0.00,,---,0.00,VWS V14.01,2013-02-12 09:55:00,
2013-02-12 05:00:00,69.4,66.7,30.00,SE,140,0.0,0.0,91,0.00,,---,0.00,VWS V14.01,2013-02-12 10:00:00,
2013-02-12 05:05:00,69.4,67.0,30.00,SE,140,0.0,0.0,92,0.00,,---,0.00,VWS V14.01,2013-02-12 10:05:00,
2013-02-12 05:10:00,69.4,67.0,30.00,SE,140,0.0,0.0,92,0.00,,---,0.00,VWS V14.01,2013-02-12 10:10:00,
2013-02-12 05:15:00,69.4,67.0,30.00,SE,140,0.0,0.0,92,0.00,,---,0.00,VWS V14.01,2013-02-12 10:15:00,
2013-02-12 05:20:00,69.4,67.3,30.00,SE,140,0.0,0.0,93,0.00,,---,0.00,VWS V14.01,2013-02-12 10:20:00,
2013-02-12 05:25:00,69.4,67.3,30.00,SE,140,0.0,0.0,93,0.00,,---,0.00,VWS V14.01,2013-02-12 10:25:00,
2013-02-12 05:30:00,69.4,67.0,30.00,SE,140,0.0,0.0,92,0.00,,---,0.00,VWS V14.01,2013-02-12 10:30:00,
2013-02-12 05:35:00,69.3,66.5,30.00,SE,140,0.0,0.0,91,0.00,,---,0.00,VWS V14.01,2013-02-12 10:35:00,
2013-02-12 05:40:00,68.9,66.2,30.00,SE,140,0.0,0.0,91,0.00,,---,0.00,VWS V14.01,2013-02-12 10:40:00,
2013-02-12 05:45:00,68.9,66.2,30.00,SE,140,0.0,0.0,91,0.00,,---,0.00,VWS V14.01,2013-02-12 10:45:00,
2013-02-12 05:50:00,68.7,66.0,30.00,SE,140,0.0,0.0,91,0.00,,---,0.00,VWS V14.01,2013-02-12 10:50:00,
2013-02-12 05:55:00,68.5,65.8,30.00,SE,140,0.0,0.0,91,0.00,,---,0.00,VWS V14.01,2013-02-12 10:55:00,
2013-02-12 06:00:00,68.5,66.1,30.00,SE,140,0.0,0.0,92,0.00,,---,0.00,VWS V14.01,2013-02-12 11:00:00,
2013-02-12 06:05:00,68.7,66.3,30.00,SE,140,0.0,0.0,92,0.00,,---,0.00,VWS V14.01,2013-02-12 11:05:00,
2013-02-12 06:10:00,68.7,66.6,30.00,SE,140,0.0,0.0,93,0.00,,---,0.00,VWS V14.01,2013-02-12 11:10:00,
2013-02-12 06:11:00,68.7,66.6,30.00,SE,140,0.0,0.0,93,0.00,,---,0.00,VWS V14.01,2013-02-12 11:11:00,
2013-02-12 06:15:00,68.7,66.6,30.00,SE,140,0.0,0.0,93,0.00,,---,0.00,VWS V14.01,2013-02-12 11:15:00,
2013-02-12 06:20:00,68.7,66.6,30.00,SE,140,0.0,0.0,93,0.00,,---,0.00,VWS V14.01,2013-02-12 11:20:00,
2013-02-12 06:25:00,68.7,66.6,30.00,SE,140,0.0,0.0,93,0.00,,---,0.00,VWS V14.01,2013-02-12 11:25:00,
2013-02-12 06:30:00,68.7,66.6,30.00,SE,140,0.0,0.0,93,0.00,,---,0.00,VWS V14.01,2013-02-12 11:30:00,
2013-02-12 06:35:00,68.7,66.6,30.00,SE,140,0.0,0.0,93,0.00,,---,0.00,VWS V14.01,2013-02-12 11:35:00,
2013-02-12 06:40:00,68.7,66.6,30.00,SE,140,0.0,0.0,93,0.00,,---,0.00,VWS V14.01,2013-02-12 11:40:00,
2013-02-12 06:45:00,68.7,66.6,30.00,SE,140,0.0,0.0,93,0.00,,---,0.00,VWS V14.01,2013-02-12 11:45:00,
2013-02-12 06:52:00,68.7,66.6,30.00,SE,140,0.0,0.0,93,0.00,,---,0.00,VWS V14.01,2013-02-12 11:52:00,
2013-02-12 06:58:00,68.7,66.6,30.00,SE,140,0.0,0.0,93,0.00,,---,0.00,VWS V14.01,2013-02-12 11:58:00,
2013-02-12 07:05:00,68.7,66.6,30.00,SE,140,0.0,0.0,93,0.00,,---,0.00,VWS V14.01,2013-02-12 12:05:00,
2013-02-12 07:10:00,68.7,66.6,30.00,SE,140,0.0,0.0,93,0.00,,---,0.00,VWS V14.01,2013-02-12 12:10:00,
2013-02-12 07:15:00,68.7,66.6,30.00,SE,140,0.0,0.0,93,0.00,,---,0.00,VWS V14.01,2013-02-12 12:15:00,
2013-02-12 07:20:00,68.7,66.6,30.00,SE,140,0.0,0.0,93,0.00,,---,0.00,VWS V14.01,2013-02-12 12:20:00,
2013-02-12 07:26:00,68.7,66.6,30.00,SE,140,0.0,0.0,93,0.00,,---,0.00,VWS V14.01,2013-02-12 12:26:00,
2013-02-12 07:34:00,68.7,66.6,30.00,SE,140,0.0,0.0,93,0.00,,---,0.00,VWS V14.01,2013-02-12 12:34:00,
2013-02-12 07:39:00,68.7,66.6,30.00,SE,140,0.0,0.0,93,0.00,,---,0.00,VWS V14.01,2013-02-12 12:39:00,
2013-02-12 07:45:00,68.7,66.6,30.00,SE,140,0.0,0.0,93,0.00,,---,0.00,VWS V14.01,2013-02-12 12:45:00,
2013-02-12 07:50:00,68.7,66.6,30.00,SE,140,0.0,0.0,93,0.00,,---,0.00,VWS V14.01,2013-02-12 12:50:00,
2013-02-12 07:55:00,68.7,66.6,30.00,SE,140,0.0,0.0,93,0.00,,---,0.00,VWS V14.01,2013-02-12 12:55:00,
2013-02-12 08:01:00,68.7,66.6,30.00,SE,140,0.0,0.0,93,0.00,,---,0.00,VWS V14.01,2013-02-12 13:01:00,
2013-02-12 08:07:00,68.7,66.6,30.00,SE,140,0.0,0.0,93,0.00,,---,0.00,VWS V14.01,2013-02-12 13:07:00,
2013-02-12 08:13:00,68.7,66.6,30.00,SE,140,0.0,0.0,93,0.00,,---,0.00,VWS V14.01,2013-02-12 13:13:00,
2013-02-12 08:20:00,68.7,66.6,30.00,SE,140,0.0,0.0,93,0.00,,---,0.00,VWS V14.01,2013-02-12 13:20:00,
2013-02-12 08:25:00,68.7,66.6,30.00,SE,140,0.0,0.0,93,0.00,,---,0.00,VWS V14.01,2013-02-12 13:25:00,
2013-02-12 08:30:00,68.7,66.6,30.00,SE,140,0.0,0.0,93,0.00,,---,0.00,VWS V14.01,2013-02-12 13:30:00,
2013-02-12 08:35:00,68.7,66.6,30.00,SE,140,0.0,0.0,93,0.00,,---,0.00,VWS V14.01,2013-02-12 13:35:00,
2013-02-12 08:40:00,68.7,66.6,30.00,SE,140,0.0,0.0,93,0.00,,---,0.00,VWS V14.01,2013-02-12 13:40:00,
2013-02-12 08:46:00,68.7,66.6,30.00,SE,140,0.0,0.0,93,0.00,,---,0.00,VWS V14.01,2013-02-12 13:46:00,
2013-02-12 08:51:00,68.7,66.6,30.00,SE,140,0.0,0.0,93,0.00,,---,0.00,VWS V14.01,2013-02-12 13:51:00,
2013-02-12 08:56:00,68.7,66.6,30.00,SE,140,0.0,0.0,93,0.00,,---,0.00,VWS V14.01,2013-02-12 13:56:00,
2013-02-12 09:01:00,68.7,66.6,30.00,SE,140,0.0,0.0,93,0.00,,---,0.00,VWS V14.01,2013-02-12 14:01:00,
2013-02-12 09:06:00,68.7,66.6,30.00,SE,140,0.0,0.0,93,0.00,,---,0.00,VWS V14.01,2013-02-12 14:06:00,
2013-02-12 09:12:00,68.7,66.6,30.00,SE,140,0.0,0.0,93,0.00,,---,0.00,VWS V14.01,2013-02-12 14:12:00,
2013-02-12 09:18:00,68.7,66.6,30.00,SE,140,0.0,0.0,93,0.00,,---,0.00,VWS V14.01,2013-02-12 14:18:00,
2013-02-12 09:24:00,68.7,66.6,30.00,SE,140,0.0,0.0,93,0.00,,---,0.00,VWS V14.01,2013-02-12 14:24:00,
2013-02-12 09:29:00,68.7,66.6,30.00,SE,140,0.0,0.0,93,0.00,,---,0.00,VWS V14.01,2013-02-12 14:29:00,
2013-02-12 09:40:00,68.7,66.6,30.00,SE,140,0.0,0.0,93,0.00,,---,0.00,VWS V14.01,2013-02-12 14:40:00,
2013-02-12 09:45:00,68.7,66.6,30.00,SE,140,0.0,0.0,93,0.00,,---,0.00,VWS V14.01,2013-02-12 14:45:00,
2013-02-12 09:52:00,68.7,66.6,30.00,SE,140,0.0,0.0,93,0.00,,---,0.00,VWS V14.01,2013-02-12 14:52:00,
2013-02-12 09:58:00,68.7,66.6,30.00,SE,140,0.0,0.0,93,0.00,,---,0.00,VWS V14.01,2013-02-12 14:58:00,
2013-02-12 10:03:00,68.7,66.6,30.00,SE,140,0.0,0.0,93,0.00,,---,0.00,VWS V14.01,2013-02-12 15:03:00,
2013-02-12 10:08:00,68.7,66.6,30.00,SE,140,0.0,0.0,93,0.00,,---,0.00,VWS V14.01,2013-02-12 15:08:00,
2013-02-12 10:14:00,68.7,66.6,30.00,SE,140,0.0,0.0,93,0.00,,---,0.00,VWS V14.01,2013-02-12 15:14:00,
2013-02-12 10:19:00,68.7,66.6,30.00,SE,140,0.0,0.0,93,0.00,,---,0.00,VWS V14.01,2013-02-12 15:19:00,
2013-02-12 10:29:00,68.7,66.6,30.00,SE,140,0.0,0.0,93,0.00,,---,0.00,VWS V14.01,2013-02-12 15:29:00,
2013-02-12 10:34:00,68.7,66.6,30.00,SE,140,0.0,0.0,93,0.00,,---,0.00,VWS V14.01,2013-02-12 15:34:00,
2013-02-12 10:39:00,68.7,66.6,30.00,SE,140,0.0,0.0,93,0.00,,---,0.00,VWS V14.01,2013-02-12 15:39:00,
2013-02-12 10:45:00,68.7,66.6,30.00,SE,140,0.0,0.0,93,0.00,,---,0.00,VWS V14.01,2013-02-12 15:45:00,
2013-02-12 10:50:00,68.7,66.6,30.00,SE,140,0.0,0.0,93,0.00,,---,0.00,VWS V14.01,2013-02-12 15:50:00,
2013-02-12 10:58:00,68.7,66.6,30.00,SE,140,0.0,0.0,93,0.00,,---,0.00,VWS V14.01,2013-02-12 15:58:00,
2013-02-12 11:03:00,68.7,66.6,30.00,SE,140,0.0,0.0,93,0.00,,---,0.00,VWS V14.01,2013-02-12 16:03:00,
2013-02-12 11:08:00,68.7,66.6,30.00,SE,140,0.0,0.0,93,0.00,,---,0.00,VWS V14.01,2013-02-12 16:08:00,
2013-02-12 11:17:00,68.7,66.6,30.00,SE,140,0.0,0.0,93,0.00,,---,0.00,VWS V14.01,2013-02-12 16:17:00,
2013-02-12 11:22:00,68.7,66.6,30.00,SE,140,0.0,0.0,93,0.00,,---,0.00,VWS V14.01,2013-02-12 16:22:00,
2013-02-12 11:33:00,68.7,66.6,30.00,SE,140,0.0,0.0,93,0.00,,---,0.00,VWS V14.01,2013-02-12 16:33:00,
2013-02-12 11:39:00,68.7,66.6,30.00,SE,140,0.0,0.0,93,0.00,,---,0.00,VWS V14.01,2013-02-12 16:39:00,
2013-02-12 11:45:00,68.7,66.6,30.00,SE,140,0.0,0.0,93,0.00,,---,0.00,VWS V14.01,2013-02-12 16:45:00,
2013-02-12 11:53:00,68.7,66.6,30.00,SE,140,0.0,0.0,93,0.00,,---,0.00,VWS V14.01,2013-02-12 16:53:00,
2013-02-12 12:01:00,68.7,66.6,30.00,SE,140,0.0,0.0,93,0.00,,---,0.00,VWS V14.01,2013-02-12 17:01:00,
2013-02-12 12:09:00,68.7,66.6,30.00,SE,140,0.0,0.0,93,0.00,,---,0.00,VWS V14.01,2013-02-12 17:09:00,
2013-02-12 12:16:00,68.7,66.6,30.00,SE,140,0.0,0.0,93,0.00,,---,0.00,VWS V14.01,2013-02-12 17:16:00,
2013-02-12 12:21:00,68.7,66.6,30.00,SE,140,0.0,0.0,93,0.00,,---,0.00,VWS V14.01,2013-02-12 17:21:00,
2013-02-12 12:26:00,68.7,66.6,30.00,SE,140,0.0,0.0,93,0.00,,---,0.00,VWS V14.01,2013-02-12 17:26:00,
2013-02-12 12:31:00,68.7,66.6,30.00,SE,140,0.0,0.0,93,0.00,,---,0.00,VWS V14.01,2013-02-12 17:31:00,
2013-02-12 12:38:00,68.7,66.6,30.00,SE,140,0.0,0.0,93,0.00,,---,0.00,VWS V14.01,2013-02-12 17:38:00,
2013-02-12 12:43:00,68.7,66.6,30.00,SE,140,0.0,0.0,93,0.00,,---,0.00,VWS V14.01,2013-02-12 17:43:00,
2013-02-12 12:52:00,68.7,66.6,30.00,SE,140,0.0,0.0,93,0.00,,---,0.00,VWS V14.01,2013-02-12 17:52:00,
2013-02-12 12:57:00,68.7,66.6,30.00,SE,140,0.0,0.0,93,0.00,,---,0.00,VWS V14.01,2013-02-12 17:57:00,
2013-02-12 13:02:00,68.7,66.6,30.00,SE,140,0.0,0.0,93,0.00,,---,0.00,VWS V14.01,2013-02-12 18:02:00,
2013-02-12 13:07:00,83.3,57.2,29.97,SSE,147,4.9,4.9,41,0.00,,---,0.00,VWS V14.01,2013-02-12 18:07:00,
2013-02-12 13:12:00,84.4,58.1,29.97,WSW,241,3.1,3.1,41,0.00,,---,0.00,VWS V14.01,2013-02-12 18:12:00,
2013-02-12 13:17:00,85.8,59.4,29.97,WSW,241,3.1,3.1,41,0.00,,---,0.00,VWS V14.01,2013-02-12 18:17:00,
2013-02-12 13:22:00,85.6,57.1,29.97,WSW,241,3.1,3.1,38,0.00,,---,0.00,VWS V14.01,2013-02-12 18:22:00,
2013-02-12 13:27:00,83.3,57.2,29.94,WSW,241,3.1,3.1,41,0.00,,---,0.00,VWS V14.01,2013-02-12 18:27:00,
2013-02-12 13:32:00,82.2,58.2,29.94,WSW,241,3.1,3.1,44,0.00,,---,0.00,VWS V14.01,2013-02-12 18:32:00,
2013-02-12 13:37:00,82.8,58.7,29.94,SSE,162,3.1,3.1,44,0.00,,---,0.00,VWS V14.01,2013-02-12 18:37:00,
2013-02-12 13:42:00,82.6,58.5,29.94,SSE,162,3.1,3.1,44,0.00,,---,0.00,VWS V14.01,2013-02-12 18:42:00,
2013-02-12 13:47:00,82.0,58.0,29.94,SSE,162,3.1,3.1,44,0.00,,---,0.00,VWS V14.01,2013-02-12 18:47:00,
2013-02-12 13:52:00,82.0,58.0,29.94,SSE,162,3.1,3.1,44,0.00,,---,0.00,VWS V14.01,2013-02-12 18:52:00,
2013-02-12 13:57:00,82.2,58.2,29.94,SSE,164,4.0,4.0,44,0.00,,---,0.00,VWS V14.01,2013-02-12 18:57:00,
2013-02-12 14:02:00,82.8,58.7,29.94,SE,145,5.4,5.4,44,0.00,,---,0.00,VWS V14.01,2013-02-12 19:02:00,
2013-02-12 14:07:00,83.1,57.0,29.94,SE,129,6.3,6.3,41,0.00,,---,0.00,VWS V14.01,2013-02-12 19:07:00,
2013-02-12 14:12:00,82.9,56.8,29.91,SSE,150,3.1,4.0,41,0.00,,---,0.00,VWS V14.01,2013-02-12 19:12:00,
2013-02-12 14:17:00,82.6,58.5,29.91,SE,143,3.6,3.6,44,0.00,,---,0.00,VWS V14.01,2013-02-12 19:17:00,
2013-02-12 14:22:00,81.9,56.5,29.91,SE,131,4.0,4.0,42,0.00,,---,0.00,VWS V14.01,2013-02-12 19:22:00,
2013-02-12 14:27:00,81.5,57.5,29.91,SW,217,5.8,5.8,44,0.00,,---,0.00,VWS V14.01,2013-02-12 19:27:00,
2013-02-12 14:32:00,81.3,57.3,29.91,South,186,4.9,4.9,44,0.00,,---,0.00,VWS V14.01,2013-02-12 19:32:00,
2013-02-12 14:37:00,81.3,57.3,29.91,ESE,118,4.0,4.0,44,0.00,,---,0.00,VWS V14.01,2013-02-12 19:37:00,
2013-02-12 14:42:00,81.7,57.7,29.91,SW,215,4.9,4.9,44,0.00,,---,0.00,VWS V14.01,2013-02-12 19:42:00,
2013-02-12 14:47:00,82.2,58.2,29.91,SSW,205,4.9,4.9,44,0.00,,---,0.00,VWS V14.01,2013-02-12 19:47:00,
2013-02-12 14:52:00,82.2,56.9,29.91,ESE,113,3.1,3.1,42,0.00,,---,0.00,VWS V14.01,2013-02-12 19:52:00,
2013-02-12 14:57:00,81.7,57.7,29.91,South,177,2.7,3.6,44,0.00,,---,0.00,VWS V14.01,2013-02-12 19:57:00,
2013-02-12 15:02:00,82.0,58.0,29.91,ESE,123,6.3,6.3,44,0.00,,---,0.00,VWS V14.01,2013-02-12 20:02:00,
2013-02-12 15:07:00,82.0,58.0,29.91,South,169,4.0,4.0,44,0.00,,---,0.00,VWS V14.01,2013-02-12 20:07:00,
2013-02-12 15:12:00,82.2,56.9,29.91,SSW,203,3.1,3.1,42,0.00,,---,0.00,VWS V14.01,2013-02-12 20:12:00,
2013-02-12 15:17:00,82.2,56.9,29.91,South,182,3.1,4.0,42,0.00,,---,0.00,VWS V14.01,2013-02-12 20:17:00,
2013-02-12 15:22:00,81.1,55.9,29.91,SE,133,3.1,3.1,42,0.00,,---,0.00,VWS V14.01,2013-02-12 20:22:00,
2013-02-12 15:27:00,80.2,57.0,29.91,South,173,2.7,2.7,45,0.00,,---,0.00,VWS V14.01,2013-02-12 20:27:00,
2013-02-12 15:32:00,80.1,58.0,29.91,East,84,2.7,2.7,47,0.00,,---,0.00,VWS V14.01,2013-02-12 20:32:00,
2013-02-12 15:37:00,79.7,60.5,29.91,SE,136,3.6,3.6,52,0.00,,---,0.00,VWS V14.01,2013-02-12 20:37:00,
2013-02-12 15:42:00,79.5,62.0,29.91,SSE,158,2.2,2.2,55,0.00,,---,0.00,VWS V14.01,2013-02-12 20:42:00,
2013-02-12 15:47:00,79.9,62.8,29.91,SSE,165,3.6,3.6,56,0.00,,---,0.00,VWS V14.01,2013-02-12 20:47:00,
2013-02-12 15:52:00,80.1,60.9,29.91,SSE,168,4.0,4.0,52,0.00,,---,0.00,VWS V14.01,2013-02-12 20:52:00,
2013-02-12 15:57:00,79.9,60.7,29.91,SE,146,4.0,4.0,52,0.00,,---,0.00,VWS V14.01,2013-02-12 20:57:00,
2013-02-12 16:02:00,79.3,60.2,29.91,South,181,4.0,5.8,52,0.00,,---,0.00,VWS V14.01,2013-02-12 21:02:00,
2013-02-12 16:07:00,79.0,61.5,29.91,South,181,5.4,5.4,55,0.00,,---,0.00,VWS V14.01,2013-02-12 21:07:00,
2013-02-12 16:12:00,79.0,61.5,29.91,SSE,150,0.0,0.0,55,0.00,,---,0.00,VWS V14.01,2013-02-12 21:12:00,
2013-02-12 16:17:00,79.0,61.5,29.91,SSW,197,4.0,4.0,55,0.00,,---,0.00,VWS V14.01,2013-02-12 21:17:00,
2013-02-12 16:22:00,78.6,61.1,29.91,SE,144,3.1,6.3,55,0.00,,---,0.00,VWS V14.01,2013-02-12 21:22:00,
2013-02-12 16:27:00,78.3,61.3,29.91,SSE,158,3.6,3.6,56,0.00,,---,0.00,VWS V14.01,2013-02-12 21:27:00,
2013-02-12 16:32:00,77.9,61.0,29.91,SSE,148,3.6,3.6,56,0.00,,---,0.00,VWS V14.01,2013-02-12 21:32:00,
2013-02-12 16:37:00,77.9,61.0,29.91,SSE,154,3.6,6.3,56,0.00,,---,0.00,VWS V14.01,2013-02-12 21:37:00,
2013-02-12 16:42:00,77.5,60.6,29.91,SSE,149,3.6,3.6,56,0.00,,---,0.00,VWS V14.01,2013-02-12 21:42:00,
2013-02-12 16:47:00,77.5,60.6,29.91,SW,222,2.2,2.2,56,0.00,,---,0.00,VWS V14.01,2013-02-12 21:47:00,
2013-02-12 16:52:00,77.4,60.5,29.91,SE,133,4.0,4.0,56,0.00,,---,0.00,VWS V14.01,2013-02-12 21:52:00,
2013-02-12 16:57:00,77.2,60.8,29.91,SE,137,4.9,5.4,57,0.00,,---,0.00,VWS V14.01,2013-02-12 21:57:00,
2013-02-12 17:02:00,77.2,61.3,29.91,SSE,165,2.7,2.7,58,0.00,,---,0.00,VWS V14.01,2013-02-12 22:02:00,
2013-02-12 17:07:00,77.2,60.8,29.91,SE,133,2.2,2.2,57,0.00,,---,0.00,VWS V14.01,2013-02-12 22:07:00,
2013-02-12 17:12:00,77.2,60.8,29.91,SSE,149,2.7,3.6,57,0.00,,---,0.00,VWS V14.01,2013-02-12 22:12:00,
2013-02-12 17:17:00,77.4,60.5,29.91,SSE,150,4.9,4.9,56,0.00,,---,0.00,VWS V14.01,2013-02-12 22:17:00,
2013-02-12 17:22:00,77.4,60.5,29.91,SSE,156,3.1,3.1,56,0.00,,---,0.00,VWS V14.01,2013-02-12 22:22:00,
2013-02-12 17:27:00,77.2,60.3,29.88,South,182,4.9,4.9,56,0.00,,---,0.00,VWS V14.01,2013-02-12 22:27:00,
2013-02-12 17:32:00,77.0,60.6,29.88,SSW,209,4.0,4.0,57,0.00,,---,0.00,VWS V14.01,2013-02-12 22:32:00,
2013-02-12 17:37:00,76.6,61.2,29.88,ESE,123,3.1,3.1,59,0.00,,---,0.00,VWS V14.01,2013-02-12 22:37:00,
2013-02-12 17:42:00,76.5,61.6,29.88,SE,141,5.4,5.4,60,0.00,,---,0.00,VWS V14.01,2013-02-12 22:42:00,
2013-02-12 17:47:00,76.1,62.2,29.88,SE,141,5.4,5.4,62,0.00,,---,0.00,VWS V14.01,2013-02-12 22:47:00,
2013-02-12 17:52:00,75.9,62.0,29.88,SE,141,5.4,5.4,62,0.00,,---,0.00,VWS V14.01,2013-02-12 22:52:00,
2013-02-12 17:57:00,75.7,62.3,29.88,SE,141,5.4,5.4,63,0.00,,---,0.00,VWS V14.01,2013-02-12 22:57:00,
2013-02-12 18:02:00,75.6,62.5,29.88,SE,141,5.4,5.4,64,0.00,,---,0.00,VWS V14.01,2013-02-12 23:02:00,
2013-02-12 18:07:00,75.4,62.8,29.88,SE,141,5.4,5.4,65,0.00,,---,0.00,VWS V14.01,2013-02-12 23:07:00,
2013-02-12 18:12:00,75.4,63.2,29.88,SE,141,5.4,5.4,66,0.00,,---,0.00,VWS V14.01,2013-02-12 23:12:00,
2013-02-12 18:17:00,75.0,63.3,29.88,SE,141,5.4,5.4,67,0.00,,---,0.00,VWS V14.01,2013-02-12 23:17:00,
2013-02-12 18:22:00,74.8,63.2,29.88,SE,141,5.4,5.4,67,0.00,,---,0.00,VWS V14.01,2013-02-12 23:22:00,
2013-02-12 18:27:00,74.7,63.4,29.91,SE,141,5.4,5.4,68,0.00,,---,0.00,VWS V14.01,2013-02-12 23:27:00,
2013-02-12 18:32:00,74.7,63.4,29.91,SE,141,5.4,5.4,68,0.00,,---,0.00,VWS V14.01,2013-02-12 23:32:00,
2013-02-12 18:37:00,74.5,63.7,29.91,SW,226,2.7,2.7,69,0.00,,---,0.00,VWS V14.01,2013-02-12 23:37:00,
2013-02-12 18:42:00,74.5,64.1,29.91,SE,141,0.0,2.7,70,0.00,,---,0.00,VWS V14.01,2013-02-12 23:42:00,
2013-02-12 18:47:00,74.3,64.7,29.91,SE,138,3.1,4.0,72,0.00,,---,0.00,VWS V14.01,2013-02-12 23:47:00,
2013-02-12 18:52:00,74.1,64.9,29.91,SW,229,3.1,3.6,73,0.00,,---,0.00,VWS V14.01,2013-02-12 23:52:00,
2013-02-12 18:57:00,73.9,65.5,29.88,SSE,147,0.0,0.0,75,0.00,,---,0.00,VWS V14.01,2013-02-12 23:57:00,
2013-02-12 19:02:00,73.9,65.9,29.88,SE,125,3.1,3.1,76,0.00,,---,0.00,VWS V14.01,2013-02-13 00:02:00,
2013-02-12 19:07:00,73.9,65.9,29.88,ESE,121,2.7,3.1,76,0.00,,---,0.00,VWS V14.01,2013-02-13 00:07:00,
2013-02-12 19:12:00,73.9,66.3,29.88,South,183,3.1,3.1,77,0.00,,---,0.00,VWS V14.01,2013-02-13 00:12:00,
2013-02-12 19:17:00,73.8,66.1,29.88,South,176,3.6,3.6,77,0.00,,---,0.00,VWS V14.01,2013-02-13 00:17:00,
2013-02-12 19:22:00,73.8,66.1,29.88,SE,128,3.1,3.6,77,0.00,,---,0.00,VWS V14.01,2013-02-13 00:22:00,
2013-02-12 19:27:00,73.8,66.1,29.88,ESE,120,5.4,5.4,77,0.00,,---,0.00,VWS V14.01,2013-02-13 00:27:00,
2013-02-12 19:32:00,73.6,66.3,29.88,SSW,204,3.1,3.1,78,0.00,,---,0.00,VWS V14.01,2013-02-13 00:32:00,
2013-02-12 19:37:00,73.6,66.3,29.88,SSE,158,2.7,2.7,78,0.00,,---,0.00,VWS V14.01,2013-02-13 00:37:00,
2013-02-12 19:42:00,73.4,66.5,29.91,SE,142,2.7,2.7,79,0.00,,---,0.00,VWS V14.01,2013-02-13 00:42:00,
2013-02-12 19:47:00,73.4,66.5,29.91,SSE,159,3.1,3.1,79,0.00,,---,0.00,VWS V14.01,2013-02-13 00:47:00,
2013-02-12 19:52:00,73.2,66.3,29.91,SE,137,3.1,3.1,79,0.00,,---,0.00,VWS V14.01,2013-02-13 00:52:00,
2013-02-12 19:57:00,73.2,66.7,29.91,SSE,147,3.6,3.6,80,0.00,,---,0.00,VWS V14.01,2013-02-13 00:57:00,
2013-02-12 20:02:00,73.2,66.7,29.91,SSE,167,4.0,4.0,80,0.00,,---,0.00,VWS V14.01,2013-02-13 01:02:00,
2013-02-12 20:07:00,73.0,66.5,29.91,SE,141,3.1,3.6,80,0.00,,---,0.00,VWS V14.01,2013-02-13 01:07:00,
2013-02-12 20:12:00,72.9,66.3,29.91,SE,137,0.0,0.0,80,0.00,,---,0.00,VWS V14.01,2013-02-13 01:12:00,
2013-02-12 20:17:00,72.9,66.3,29.91,SSE,167,3.6,3.6,80,0.00,,---,0.00,VWS V14.01,2013-02-13 01:17:00,
2013-02-12 20:22:00,72.7,66.2,29.91,SSE,152,2.2,2.2,80,0.00,,---,0.00,VWS V14.01,2013-02-13 01:22:00,
2013-02-12 20:27:00,72.7,66.2,29.91,SSE,151,3.1,3.6,80,0.00,,---,0.00,VWS V14.01,2013-02-13 01:27:00,
2013-02-12 20:32:00,72.5,66.3,29.91,SE,129,2.2,2.7,81,0.00,,---,0.00,VWS V14.01,2013-02-13 01:32:00,
2013-02-12 20:37:00,72.5,66.3,29.91,SE,137,2.2,2.2,81,0.00,,---,0.00,VWS V14.01,2013-02-13 01:37:00,
2013-02-12 20:42:00,72.5,66.7,29.91,SSE,155,4.0,4.0,82,0.00,,---,0.00,VWS V14.01,2013-02-13 01:42:00,
2013-02-12 20:47:00,72.3,66.9,29.91,WSW,253,5.8,5.8,83,0.00,,---,0.00,VWS V14.01,2013-02-13 01:47:00,
2013-02-12 20:52:00,72.3,67.2,29.91,SE,146,6.3,6.3,84,0.00,,---,0.00,VWS V14.01,2013-02-13 01:52:00,
2013-02-12 20:57:00,72.5,67.7,29.91,SE,141,0.0,2.7,85,0.00,,---,0.00,VWS V14.01,2013-02-13 01:57:00,
2013-02-12 21:02:00,72.5,67.7,29.91,SE,134,4.0,4.0,85,0.00,,---,0.00,VWS V14.01,2013-02-13 02:02:00,
2013-02-12 21:07:00,72.7,68.3,29.91,South,176,2.2,3.6,86,0.00,,---,0.00,VWS V14.01,2013-02-13 02:07:00,
2013-02-12 21:12:00,72.7,68.3,29.91,SSE,153,3.1,3.1,86,0.00,,---,0.00,VWS V14.01,2013-02-13 02:12:00,
2013-02-12 21:17:00,72.7,68.3,29.91,South,172,0.0,0.0,86,0.00,,---,0.00,VWS V14.01,2013-02-13 02:17:00,
2013-02-12 21:22:00,72.7,68.3,29.91,SE,144,0.0,0.0,86,0.00,,---,0.00,VWS V14.01,2013-02-13 02:22:00,
2013-02-12 21:27:00,72.7,68.3,29.91,SE,131,3.6,3.6,86,0.00,,---,0.00,VWS V14.01,2013-02-13 02:27:00,
2013-02-12 21:32:00,72.7,68.6,29.91,SE,144,0.0,0.0,87,0.00,,---,0.00,VWS V14.01,2013-02-13 02:32:00,
2013-02-12 21:37:00,72.7,68.6,29.91,SE,135,2.7,2.7,87,0.00,,---,0.00,VWS V14.01,2013-02-13 02:37:00,
2013-02-12 21:42:00,72.9,69.1,29.91,SSE,153,3.1,3.1,88,0.00,,---,0.00,VWS V14.01,2013-02-13 02:42:00,
2013-02-12 21:47:00,72.9,69.1,29.91,SSE,151,2.7,4.0,88,0.00,,---,0.00,VWS V14.01,2013-02-13 02:47:00,
2013-02-12 21:52:00,73.0,69.6,29.91,SSE,163,2.2,6.7,89,0.00,,---,0.00,VWS V14.01,2013-02-13 02:52:00,
2013-02-12 21:57:00,73.0,70.3,29.91,SE,137,0.0,2.2,91,0.00,,---,0.00,VWS V14.01,2013-02-13 02:57:00,
2013-02-12 22:02:00,73.2,70.4,29.91,SSE,154,3.6,3.6,91,0.00,,---,0.00,VWS V14.01,2013-02-13 03:02:00,
2013-02-12 22:07:00,73.4,70.6,29.91,ESE,105,3.1,3.6,91,0.00,,---,0.00,VWS V14.01,2013-02-13 03:07:00,
2013-02-12 22:12:00,73.4,70.9,29.91,SSW,212,4.9,4.9,92,0.00,,---,0.00,VWS V14.01,2013-02-13 03:12:00,
2013-02-12 22:17:00,73.6,70.8,29.91,SE,146,2.7,3.6,91,0.00,,---,0.00,VWS V14.01,2013-02-13 03:17:00,
2013-02-12 22:22:00,73.6,70.8,29.91,ESE,116,3.1,3.1,91,0.00,,---,0.00,VWS V14.01,2013-02-13 03:22:00,
2013-02-12 22:27:00,73.6,70.5,29.91,SE,135,5.8,5.8,90,0.00,,---,0.00,VWS V14.01,2013-02-13 03:27:00,
2013-02-12 22:32:00,73.6,70.1,29.91,SSE,158,3.1,3.1,89,0.00,,---,0.00,VWS V14.01,2013-02-13 03:32:00,
2013-02-12 22:37:00,73.6,70.1,29.91,SSE,150,0.0,0.0,89,0.00,,---,0.00,VWS V14.01,2013-02-13 03:37:00,
2013-02-12 22:42:00,73.4,69.6,29.91,South,172,0.0,0.0,88,0.00,,---,0.00,VWS V14.01,2013-02-13 03:42:00,
2013-02-12 22:47:00,73.4,69.6,29.91,WSW,252,2.7,3.6,88,0.00,,---,0.00,VWS V14.01,2013-02-13 03:47:00,
2013-02-12 22:52:00,73.4,69.6,29.91,SE,124,0.0,3.6,88,0.00,,---,0.00,VWS V14.01,2013-02-13 03:52:00,
2013-02-12 22:57:00,73.2,70.1,29.91,SSW,208,0.0,0.0,90,0.00,,---,0.00,VWS V14.01,2013-02-13 03:57:00,
2013-02-12 23:02:00,73.2,70.1,29.91,SSE,149,2.2,2.2,90,0.00,,---,0.00,VWS V14.01,2013-02-13 04:02:00,
2013-02-12 23:07:00,73.2,70.4,29.91,SSE,147,2.7,3.1,91,0.00,,---,0.00,VWS V14.01,2013-02-13 04:07:00,
2013-02-12 23:12:00,73.2,70.8,29.91,SSE,152,0.0,0.0,92,0.00,,---,0.00,VWS V14.01,2013-02-13 04:12:00,
2013-02-12 23:17:00,73.2,70.8,29.91,SE,138,2.7,4.0,92,0.00,,---,0.00,VWS V14.01,2013-02-13 04:17:00,
2013-02-12 23:22:00,73.2,71.1,29.91,SSE,148,2.7,2.7,93,0.00,,---,0.00,VWS V14.01,2013-02-13 04:22:00,
2013-02-12 23:27:00,73.0,71.5,29.91,SSE,148,3.1,3.1,95,0.00,,---,0.00,VWS V14.01,2013-02-13 04:27:00,
2013-02-12 23:32:00,73.0,71.8,29.91,SE,134,0.0,2.2,96,0.00,,---,0.00,VWS V14.01,2013-02-13 04:32:00,
2013-02-12 23:37:00,73.0,72.1,29.91,SE,124,0.0,3.1,97,0.00,,---,0.00,VWS V14.01,2013-02-13 04:37:00,
2013-02-12 23:42:00,73.0,72.1,29.91,SE,131,0.0,2.7,97,0.00,,---,0.00,VWS V14.01,2013-02-13 04:42:00,
2013-02-12 23:47:00,72.9,72.3,29.91,SSE,150,2.7,3.6,98,0.00,,---,0.00,VWS V14.01,2013-02-13 04:47:00,
2013-02-12 23:52:00,72.9,72.6,29.91,SSE,149,0.0,3.6,99,0.00,,---,0.00,VWS V14.01,2013-02-13 04:52:00,
2013-02-12 23:57:00,72.9,72.6,29.91,SE,146,0.0,0.0,99,0.00,,---,0.00,VWS V14.01,2013-02-13 04:57:00,